Location: Prairie View Elementary School
(39.8322°N, 99.5698°W)
Time: 02:47:09
(UTC+00:00)

Lacrosse 5 - Pass Details

Date: 08 December 2019
Orbit: 717 x 722 km, 57.0° (Epoch: 10 January)

Event Time Altitude Azimuth Distance (km) Brightness Sun altitude
Exits shadow 11:39:52 33° 209° (SSW) 1,185 2.8 -23.7°
Drops below altitude 10° 11:43:29 10° 169° (S) 2,193 4.6 -23.0°
Sets 11:46:00 0° 161° (SSE) 3,110 5.6 -22.5°
